Temp: 12.0°C   Baro: 993.2mb
  Wind: 2.9mph   Dir: SSE (152°)
  Rain: 0.6mm (0.0mm/hr)
  Solar: 0W/m2  Hum: 75%
 
Bath Spa Weather Station Historical Data
Daily Summary for July 10, 2020 Units:  Metric    English   Both
Daily Weekly Monthly Yearly Custom
  High: Low: Average:
Temperature: 17.7 °C 11.2 °C 14.4 °C
Dew Point: 12 °C 7.8 °C 9.8 °C
Humidity: 92% 57.4% 75%
Wind Speed: 15.1km/h 0km/h 5.3km/h
Wind Gust: 27.4km/h - -
Wind- - WNW
Pressure: 1024.3 hPa 1014.1 hPa -
Precipitation: 0.25 mm    
Historical Graphs
 
 
Tabular Data for July 10, 2020
Time Temperature Dew Point Pressure Wind Wind Speed Wind Gust Humidity Rainfall Rate (Hourly) solar
00:04 13.4 °C 12 °C 1014.1 hPa NNW 4.3 km/h 12.9 km/h 91% 0 mm 0 W/m2
00:09 13.4 °C 12 °C 1014.1 hPa North 5.1 km/h 12.9 km/h 91% 0 mm 0 W/m2
00:14 13.3 °C 11.9 °C 1014.1 hPa NNW 6.1 km/h 12.9 km/h 91% 0 mm 0 W/m2
00:19 13.3 °C 11.9 °C 1014.1 hPa NNW 5.3 km/h 14.5 km/h 91% 0 mm 0 W/m2
00:24 13.3 °C 11.9 °C 1014.1 hPa NNW 4.5 km/h 8 km/h 91% 0 mm 0 W/m2
00:29 13.3 °C 11.9 °C 1014.4 hPa NW 3.4 km/h 9.7 km/h 91% 0 mm 0 W/m2
00:33 13.4 °C 12 °C 1014.4 hPa NNW 3.5 km/h 9.7 km/h 91% 0 mm 0 W/m2
00:39 13.4 °C 12 °C 1014.4 hPa NNW 2.6 km/h 6.4 km/h 91% 0 mm 0 W/m2
00:42 13.4 °C 12 °C 1014.4 hPa NW 5.8 km/h 11.3 km/h 91% 0 mm 0 W/m2
00:49 13.4 °C 12 °C 1014.4 hPa NW 6.4 km/h 12.9 km/h 91% 0 mm 0 W/m2
00:54 13.4 °C 12 °C 1014.4 hPa NW 4.5 km/h 8 km/h 91% 0 mm 0 W/m2
00:59 13.4 °C 12 °C 1014.4 hPa NW 4.8 km/h 9.7 km/h 91% 0 mm 0 W/m2
01:04 13.3 °C 11.9 °C 1014.4 hPa NNW 4.3 km/h 11.3 km/h 91% 0 mm 0 W/m2
01:09 13.3 °C 11.9 °C 1014.4 hPa North 3.2 km/h 9.7 km/h 91% 0 mm 0 W/m2
01:14 13.3 °C 11.9 °C 1014.4 hPa NNW 3.1 km/h 16.1 km/h 91% 0 mm 0 W/m2
01:19 13.3 °C 11.9 °C 1014.4 hPa NNW 7.1 km/h 16.1 km/h 91% 0 mm 0 W/m2
01:24 13.3 °C 11.9 °C 1014.4 hPa NNW 4.5 km/h 9.7 km/h 91% 0 mm 0 W/m2
01:29 13.3 °C 11.9 °C 1014.4 hPa North 2.3 km/h 6.4 km/h 91% 0 mm 0 W/m2
01:33 13.3 °C 11.9 °C 1014.8 hPa North 3.5 km/h 6.4 km/h 91% 0 mm 0 W/m2
01:39 13.3 °C 11.9 °C 1014.8 hPa North 1.4 km/h 6.4 km/h 91% 0 mm 0 W/m2
01:44 13.2 °C 11.8 °C 1014.8 hPa North 4.5 km/h 8 km/h 91% 0 mm 0 W/m2
01:49 13.2 °C 11.8 °C 1014.8 hPa North 1.9 km/h 9.7 km/h 91% 0 mm 0 W/m2
01:54 13.2 °C 11.8 °C 1014.8 hPa NNE 2.1 km/h 9.7 km/h 91% 0 mm 0 W/m2
01:59 13.1 °C 11.7 °C 1014.8 hPa NNW 4 km/h 11.3 km/h 91% 0 mm 0 W/m2
02:04 13.1 °C 11.7 °C 1014.8 hPa NW 3.2 km/h 11.3 km/h 91% 0 mm 0 W/m2
02:09 13.1 °C 11.7 °C 1014.8 hPa NW 5.1 km/h 12.9 km/h 91% 0 mm 0 W/m2
02:14 13.1 °C 11.7 °C 1014.8 hPa North 3.7 km/h 8 km/h 91% 0 mm 0 W/m2
02:19 13.1 °C 11.7 °C 1014.8 hPa NNW 4 km/h 6.4 km/h 91% 0 mm 0 W/m2
02:24 13.1 °C 11.7 °C 1014.8 hPa NNW 5.8 km/h 9.7 km/h 91% 0 mm 0 W/m2
02:29 13.1 °C 11.7 °C 1014.8 hPa NNW 6.1 km/h 12.9 km/h 91% 0 mm 0 W/m2
02:34 13.1 °C 11.7 °C 1014.8 hPa NNW 2.7 km/h 11.3 km/h 91% 0 mm 0 W/m2
02:39 13 °C 11.6 °C 1014.8 hPa NW 3.2 km/h 6.4 km/h 91% 0 mm 0 W/m2
02:44 13.1 °C 11.7 °C 1014.8 hPa NNW 3.2 km/h 8 km/h 91% 0 mm 0 W/m2
02:49 13 °C 11.6 °C 1014.8 hPa NNW 5.1 km/h 9.7 km/h 91% 0 mm 0 W/m2
02:54 12.9 °C 11.6 °C 1014.8 hPa NNW 4 km/h 8 km/h 91% 0 mm 0 W/m2
02:59 12.9 °C 11.6 °C 1014.8 hPa NNW 2.6 km/h 8 km/h 91% 0 mm 0 W/m2
03:04 12.9 °C 11.5 °C 1014.8 hPa NNW 2.9 km/h 8 km/h 91% 0 mm 0 W/m2
03:09 12.9 °C 11.5 °C 1014.8 hPa NNW 2.3 km/h 8 km/h 91% 0 mm 0 W/m2
03:14 12.8 °C 11.4 °C 1014.8 hPa NNW 1 km/h 8 km/h 91% 0 mm 0 W/m2
03:19 12.7 °C 11.3 °C 1015.1 hPa NNW 2.1 km/h 6.4 km/h 91% 0 mm 0 W/m2
03:24 12.6 °C 11.2 °C 1015.1 hPa NNW 1.9 km/h 4.8 km/h 91% 0 mm 0 W/m2
03:29 12.4 °C 11.1 °C 1015.1 hPa NW 4.5 km/h 9.7 km/h 91% 0 mm 0 W/m2
03:34 12.3 °C 10.9 °C 1015.1 hPa WNW 2.1 km/h 9.7 km/h 91% 0 mm 0 W/m2
03:39 12.3 °C 10.9 °C 1015.1 hPa WNW 1.3 km/h 6.4 km/h 91% 0 mm 0 W/m2
03:44 12.3 °C 10.9 °C 1015.1 hPa WNW 0.6 km/h 3.2 km/h 91% 0 mm 0 W/m2
03:49 12.2 °C 10.8 °C 1015.1 hPa WNW 0.6 km/h 3.2 km/h 91% 0 mm 0 W/m2
03:54 12.2 °C 10.8 °C 1015.1 hPa WNW 0.3 km/h 4.8 km/h 91% 0 mm 0 W/m2
03:59 12.2 °C 10.8 °C 1015.1 hPa Calm     91% 0 mm 0 W/m2
04:04 12.1 °C 10.7 °C 1015.1 hPa Calm     91% 0 mm 0 W/m2
04:09 12.1 °C 10.7 °C 1015.1 hPa Calm     91% 0 mm 0 W/m2
04:14 12 °C 10.6 °C 1015.1 hPa Calm     91% 0 mm 0 W/m2
04:19 11.9 °C 10.5 °C 1015.1 hPa Calm     91% 0 mm 0 W/m2
04:24 11.8 °C 10.4 °C 1015.5 hPa Calm     91% 0 mm 0 W/m2
04:29 11.7 °C 10.3 °C 1015.5 hPa NW 3.9 km/h 8 km/h 91% 0 mm 0 W/m2
04:34 11.8 °C 10.5 °C 1015.5 hPa NNW 4.2 km/h 8 km/h 91.4% 0 mm 0 W/m2
04:39 11.9 °C 10.6 °C 1015.5 hPa NNW 3.5 km/h 12.9 km/h 92% 0 mm 0 W/m2
04:44 12 °C 10.7 °C 1015.5 hPa NW 4.2 km/h 12.9 km/h 92% 0 mm 0 W/m2
04:49 12 °C 10.7 °C 1015.5 hPa NW 4.5 km/h 8 km/h 92% 0 mm 0 W/m2
04:54 12.1 °C 10.8 °C 1015.8 hPa NW 5.8 km/h 9.7 km/h 92% 0 mm 0 W/m2
04:58 12.1 °C 10.8 °C 1015.5 hPa NNW 5.6 km/h 9.7 km/h 92% 0 mm 0 W/m2
05:04 12 °C 10.7 °C 1015.5 hPa NNW 4.2 km/h 8 km/h 92% 0 mm 0 W/m2
05:09 12 °C 10.7 °C 1015.5 hPa NNW 3.1 km/h 9.7 km/h 92% 0 mm 5 W/m2
05:14 11.9 °C 10.6 °C 1015.8 hPa NNW 1 km/h 4.8 km/h 92% 0 mm 5 W/m2
05:19 11.9 °C 10.6 °C 1015.8 hPa NNW 1.8 km/h 4.8 km/h 92% 0 mm 9 W/m2
05:24 11.8 °C 10.4 °C 1015.8 hPa NNW 3.5 km/h 4.8 km/h 91% 0 mm 9 W/m2
05:29 11.7 °C 10.3 °C 1016.1 hPa NNW 3.9 km/h 4.8 km/h 91.4% 0 mm 12 W/m2
05:34 11.7 °C 10.4 °C 1016.1 hPa Calm   4.8 km/h 92% 0 mm 14 W/m2
05:39 11.7 °C 10.4 °C 1016.1 hPa Calm     92% 0 mm 18 W/m2
05:44 11.6 °C 10.3 °C 1016.1 hPa Calm     92% 0 mm 19 W/m2
05:49 11.6 °C 10.3 °C 1016.1 hPa Calm     92% 0 mm 21 W/m2
05:54 11.4 °C 10.2 °C 1016.5 hPa NNW 0.6 km/h 3.2 km/h 92% 0 mm 26 W/m2
05:59 11.3 °C 10.1 °C 1016.5 hPa Calm   1.6 km/h 92% 0 mm 33 W/m2
06:04 11.3 °C 10 °C 1016.1 hPa NNW 1.3 km/h 4.8 km/h 92% 0 mm 40 W/m2
06:09 11.3 °C 10 °C 1016.5 hPa Calm     92% 0 mm 47 W/m2
06:14 11.3 °C 10 °C 1016.5 hPa NNW 1.1 km/h 3.2 km/h 92% 0 mm 46 W/m2
06:19 11.3 °C 10 °C 1016.5 hPa NNW 1.3 km/h 3.2 km/h 92% 0 mm 49 W/m2
06:24 11.2 °C 9.9 °C 1016.5 hPa NNW 1.3 km/h 3.2 km/h 92% 0 mm 63 W/m2
06:29 11.2 °C 9.9 °C 1016.5 hPa NW 1.9 km/h 6.4 km/h 92% 0 mm 83 W/m2
06:34 11.3 °C 9.9 °C 1016.8 hPa WNW 6.3 km/h 11.3 km/h 91.4% 0 mm 84 W/m2
06:39 11.3 °C 9.9 °C 1016.8 hPa West 6 km/h 9.7 km/h 91% 0 mm 113 W/m2
06:44 11.4 °C 10 °C 1016.8 hPa WNW 2.9 km/h 8 km/h 91% 0 mm 172 W/m2
06:49 11.4 °C 9.9 °C 1016.8 hPa NW 3.1 km/h 6.4 km/h 90.6% 0 mm 181 W/m2
06:54 11.7 °C 10.1 °C 1016.8 hPa WNW 2.6 km/h 9.7 km/h 90% 0 mm 195 W/m2
06:59 11.8 °C 10.1 °C 1017.2 hPa NW 5.1 km/h 11.3 km/h 89% 0 mm 221 W/m2
07:04 11.9 °C 9.9 °C 1017.2 hPa NW 5.8 km/h 12.9 km/h 87.4% 0 mm 225 W/m2
07:09 12.1 °C 9.8 °C 1017.2 hPa NNW 4.5 km/h 9.7 km/h 86% 0 mm 190 W/m2
07:14 12.1 °C 9.6 °C 1017.2 hPa NW 5.1 km/h 11.3 km/h 84.5% 0 mm 125 W/m2
07:19 12 °C 9.3 °C 1017.2 hPa NW 5.1 km/h 8 km/h 83.2% 0 mm 218 W/m2
07:24 12.1 °C 9.1 °C 1017.2 hPa NW 3.2 km/h 8 km/h 82% 0 mm 174 W/m2
07:29 12.2 °C 9.2 °C 1017.2 hPa NW 3.9 km/h 8 km/h 82% 0 mm 241 W/m2
07:34 12.2 °C 9 °C 1017.2 hPa NNW 4.7 km/h 8 km/h 81% 0 mm 202 W/m2
07:39 12.3 °C 8.9 °C 1017.2 hPa NW 9 km/h 14.5 km/h 80.2% 0 mm 181 W/m2
07:44 12.4 °C 8.9 °C 1017.5 hPa NW 4.2 km/h 9.7 km/h 79.2% 0 mm 174 W/m2
07:49 12.5 °C 8.9 °C 1017.5 hPa WNW 3.2 km/h 11.3 km/h 78.8% 0 mm 149 W/m2
07:54 12.5 °C 8.7 °C 1017.5 hPa NW 7.1 km/h 17.7 km/h 77.6% 0 mm 156 W/m2
07:59 12.4 °C 8.3 °C 1017.5 hPa NW 4.5 km/h 14.5 km/h 76% 0 mm 167 W/m2
08:04 12.5 °C 8.3 °C 1017.5 hPa NW 6.3 km/h 16.1 km/h 75.8% 0 mm 162 W/m2
08:09 12.4 °C 8.1 °C 1017.8 hPa NNW 7.1 km/h 14.5 km/h 75% 0 mm 199 W/m2
08:14 12.5 °C 8.2 °C 1017.8 hPa NNW 6 km/h 11.3 km/h 74.8% 0 mm 485 W/m2
08:19 12.8 °C 8.4 °C 1017.8 hPa NW 2.6 km/h 9.7 km/h 74.8% 0 mm 339 W/m2
08:24 12.9 °C 8.4 °C 1017.8 hPa NW 4 km/h 9.7 km/h 74.3% 0 mm 411 W/m2
08:29 13 °C 8.5 °C 1017.8 hPa North 6 km/h 12.9 km/h 74% 0 mm 543 W/m2
08:34 13.2 °C 8.4 °C 1017.8 hPa North 7.2 km/h 14.5 km/h 73% 0 mm 241 W/m2
08:39 12.9 °C 8.2 °C 1017.8 hPa NW 6.4 km/h 14.5 km/h 73% 0 mm 216 W/m2
08:44 12.9 °C 8.2 °C 1017.8 hPa NNW 4.2 km/h 11.3 km/h 73% 0 mm 192 W/m2
08:49 12.9 °C 8.3 °C 1018.2 hPa NW 4.2 km/h 8 km/h 73.2% 0 mm 227 W/m2
08:54 13.1 °C 8.4 °C 1018.2 hPa NW 5.5 km/h 12.9 km/h 73.6% 0 mm 295 W/m2
08:59 13.1 °C 8.6 °C 1018.2 hPa NNW 5.3 km/h 11.3 km/h 73.8% 0 mm 378 W/m2
09:04 13.3 °C 8.7 °C 1018.2 hPa NW 6.4 km/h 12.9 km/h 73.4% 0 mm 371 W/m2
09:09 13.5 °C 8.9 °C 1018.5 hPa NNW 4.7 km/h 11.3 km/h 73.8% 0 mm 306 W/m2
09:14 13.5 °C 8.8 °C 1018.5 hPa NW 7.7 km/h 14.5 km/h 73% 0 mm 390 W/m2
09:19 13.6 °C 8.9 °C 1018.5 hPa NNW 7.2 km/h 14.5 km/h 73.4% 0 mm 355 W/m2
09:24 13.8 °C 9.1 °C 1018.5 hPa NNW 7.7 km/h 14.5 km/h 73.4% 0 mm 329 W/m2
09:29 13.8 °C 9 °C 1018.5 hPa NNW 7.2 km/h 16.1 km/h 73.2% 0 mm 281 W/m2
09:34 13.8 °C 8.9 °C 1018.5 hPa NNW 7.1 km/h 14.5 km/h 72.6% 0 mm 366 W/m2
09:39 13.8 °C 9.1 °C 1018.5 hPa North 4.3 km/h 12.9 km/h 73% 0 mm 302 W/m2
09:44 13.9 °C 9.1 °C 1018.5 hPa North 6.6 km/h 14.5 km/h 73% 0 mm 251 W/m2
09:49 14.1 °C 9.2 °C 1018.5 hPa NW 3.4 km/h 8 km/h 73% 0 mm 251 W/m2
09:54 14.2 °C 9.6 °C 1018.5 hPa WNW 6.9 km/h 14.5 km/h 73.8% 0 mm 267 W/m2
09:59 14 °C 8.8 °C 1018.5 hPa North 6.1 km/h 14.5 km/h 71.2% 0 mm 288 W/m2
10:04 14.2 °C 9 °C 1018.8 hPa NNW 6.4 km/h 14.5 km/h 71% 0 mm 260 W/m2
10:09 14.2 °C 8.8 °C 1018.8 hPa North 8 km/h 14.5 km/h 70% 0 mm 279 W/m2
10:14 14.2 °C 8.8 °C 1018.8 hPa NNE 7.2 km/h 16.1 km/h 70% 0 mm 316 W/m2
10:19 14.2 °C 8.4 °C 1018.8 hPa North 9.8 km/h 16.1 km/h 67.8% 0.25 mm 297 W/m2
10:24 14.2 °C 8.2 °C 1018.8 hPa NNW 7.2 km/h 12.9 km/h 67% 0.25 mm 306 W/m2
10:29 14.2 °C 8.3 °C 1018.8 hPa NNW 4 km/h 11.3 km/h 67.5% 0.25 mm 297 W/m2
10:34 14.5 °C 8.6 °C 1018.8 hPa NNE 6.1 km/h 11.3 km/h 67.8% 0.25 mm 339 W/m2
10:39 14.6 °C 8.8 °C 1018.8 hPa NNW 5.6 km/h 12.9 km/h 68.2% 0.25 mm 320 W/m2
10:44 14.4 °C 9.3 °C 1018.8 hPa NW 5.3 km/h 14.5 km/h 71.2% 0.25 mm 255 W/m2
10:49 14.5 °C 9.4 °C 1019.2 hPa NW 11.3 km/h 19.3 km/h 71.8% 0.25 mm 244 W/m2
10:54 14.4 °C 9.3 °C 1019.2 hPa NW 7.7 km/h 19.3 km/h 71.6% 0.25 mm 232 W/m2
10:59 14.5 °C 9.5 °C 1019.2 hPa NW 6.1 km/h 14.5 km/h 72% 0.25 mm 297 W/m2
11:04 14.6 °C 9.4 °C 1019.2 hPa NNW 7.6 km/h 14.5 km/h 71.6% 0.25 mm 352 W/m2
11:09 14.6 °C 9.5 °C 1019.2 hPa NNW 5 km/h 14.5 km/h 71.4% 0.25 mm 302 W/m2
11:14 14.9 °C 9.9 °C 1019.2 hPa NNW 6 km/h 11.3 km/h 72% 0.25 mm 339 W/m2
11:19 14.9 °C 9.6 °C 1019.2 hPa North 9 km/h 22.5 km/h 70.2% 0.25 mm 316 W/m2
11:24 14.8 °C 9.4 °C 1019.2 hPa NNW 7.1 km/h 14.5 km/h 70.2% 0 mm 343 W/m2
11:29 15 °C 9.6 °C 1019.2 hPa NNW 5.1 km/h 12.9 km/h 70% 0 mm 396 W/m2
11:34 15.2 °C 9.7 °C 1019.2 hPa NNW 8.7 km/h 17.7 km/h 69.8% 0 mm 373 W/m2
11:39 15.2 °C 9.4 °C 1019.2 hPa NNW 10.6 km/h 17.7 km/h 68.8% 0 mm 202 W/m2
11:44 14.9 °C 9 °C 1019.2 hPa NNW 9.5 km/h 20.9 km/h 67.8% 0 mm 267 W/m2
11:49 14.9 °C 8.7 °C 1019.5 hPa NW 8.7 km/h 16.1 km/h 66.6% 0 mm 330 W/m2
11:54 15.1 °C 8.3 °C 1019.5 hPa NNW 13.7 km/h 24.1 km/h 64.2% 0 mm 357 W/m2
11:59 15.2 °C 8.2 °C 1019.5 hPa NNW 13.8 km/h 22.5 km/h 63% 0 mm 452 W/m2
12:04 15.4 °C 8.4 °C 1019.5 hPa NNW 6.9 km/h 17.7 km/h 63.2% 0 mm 580 W/m2
12:09 15.6 °C 8.1 °C 1019.5 hPa NW 14.6 km/h 27.4 km/h 61% 0 mm 612 W/m2
12:14 15.7 °C 8.2 °C 1019.5 hPa NW 13.2 km/h 22.5 km/h 61% 0 mm 701 W/m2
12:19 15.8 °C 8.2 °C 1019.5 hPa NNW 12.2 km/h 19.3 km/h 60.6% 0 mm 687 W/m2
12:23 15.8 °C 8.5 °C 1019.5 hPa NW 9.2 km/h 20.9 km/h 62% 0 mm 214 W/m2
12:29 15.6 °C 8.6 °C 1019.9 hPa NNW 11.3 km/h 19.3 km/h 63.2% 0 mm 315 W/m2
12:34 15.4 °C 8.8 °C 1019.5 hPa NNW 9 km/h 17.7 km/h 64.4% 0 mm 445 W/m2
12:39 15.6 °C 8.7 °C 1019.5 hPa WNW 6.8 km/h 17.7 km/h 63.6% 0 mm 411 W/m2
12:44 15.5 °C 8.6 °C 1019.5 hPa NW 7.2 km/h 19.3 km/h 63.2% 0 mm 438 W/m2
12:49 15.6 °C 8.8 °C 1019.9 hPa NW 8 km/h 14.5 km/h 64.2% 0 mm 557 W/m2
12:54 15.8 °C 8.9 °C 1019.9 hPa NW 7.1 km/h 17.7 km/h 63.8% 0 mm 645 W/m2
12:59 16.1 °C 8.6 °C 1019.9 hPa NW 9.2 km/h 22.5 km/h 61% 0 mm 645 W/m2
13:03 15.9 °C 8.4 °C 1019.9 hPa WNW 11.6 km/h 22.5 km/h 61% 0 mm 645 W/m2
13:09 15.9 °C 8.4 °C 1019.9 hPa WNW 10.6 km/h 20.9 km/h 61.2% 0 mm 476 W/m2
13:14 16 °C 8.5 °C 1019.9 hPa WNW 8.7 km/h 19.3 km/h 61.2% 0 mm 443 W/m2
13:19 16.2 °C 9 °C 1019.9 hPa NW 7.9 km/h 20.9 km/h 62.4% 0 mm 1062 W/m2
13:24 16.5 °C 9.1 °C 1019.9 hPa NW 12.9 km/h 19.3 km/h 61.3% 0 mm 1071 W/m2
13:29 16.9 °C 8.8 °C 1019.9 hPa NW 8.7 km/h 19.3 km/h 59% 0 mm 1071 W/m2
13:34 16.8 °C 8.8 °C 1019.9 hPa NW 11.6 km/h 20.9 km/h 59% 0 mm 696 W/m2
13:39 17.1 °C 9.1 °C 1019.9 hPa NNW 6 km/h 20.9 km/h 59.2% 0 mm 696 W/m2
13:44 16.9 °C 8.8 °C 1019.9 hPa NW 7.6 km/h 24.1 km/h 59% 0 mm 443 W/m2
13:49 16.4 °C 8.7 °C 1019.9 hPa NW 13.2 km/h 19.3 km/h 60.2% 0 mm 399 W/m2
13:54 16.2 °C 9 °C 1019.9 hPa NNW 8 km/h 19.3 km/h 62.4% 0 mm 396 W/m2
13:58 16.3 °C 9.2 °C 1019.9 hPa NNW 12.2 km/h 22.5 km/h 63% 0 mm 445 W/m2
14:04 16.3 °C 9.3 °C 1019.9 hPa North 10.3 km/h 19.3 km/h 63.2% 0 mm 1049 W/m2
14:09 16.7 °C 9.5 °C 1019.9 hPa NNW 7.6 km/h 22.5 km/h 62.6% 0 mm 1025 W/m2
14:14 16.8 °C 9.3 °C 1020.2 hPa NNW 14.6 km/h 22.5 km/h 61.5% 0 mm 1074 W/m2
14:19 16.8 °C 9.7 °C 1020.2 hPa WNW 9.7 km/h 22.5 km/h 63.2% 0 mm 1074 W/m2
14:24 17.1 °C 9.7 °C 1019.9 hPa West 10.6 km/h 20.9 km/h 62% 0 mm 512 W/m2
14:28 17.1 °C 9.6 °C 1019.9 hPa West 9.3 km/h 16.1 km/h 61.3% 0 mm 397 W/m2
14:34 17.3 °C 9.9 °C 1019.9 hPa WNW 15.1 km/h 25.7 km/h 61.6% 0 mm 1046 W/m2
14:39 17.3 °C 9.2 °C 1020.2 hPa WNW 13.2 km/h 27.4 km/h 58.6% 0 mm 1032 W/m2
14:44 17 °C 8.7 °C 1020.2 hPa NW 7.7 km/h 19.3 km/h 58% 0 mm 1032 W/m2
14:49 16.9 °C 9.2 °C 1020.2 hPa WNW 8.7 km/h 16.1 km/h 60.2% 0 mm 302 W/m2
14:54 16.9 °C 9.1 °C 1020.2 hPa NW 8.5 km/h 17.7 km/h 60% 0 mm 271 W/m2
14:59 16.8 °C 9 °C 1020.2 hPa NW 10.8 km/h 20.9 km/h 60% 0 mm 309 W/m2
15:04 16.8 °C 9.4 °C 1020.2 hPa West 12.1 km/h 20.9 km/h 61.6% 0 mm 276 W/m2
15:09 16.7 °C 9.4 °C 1020.2 hPa WNW 11.3 km/h 22.5 km/h 62% 0 mm 327 W/m2
15:14 16.8 °C 9.3 °C 1020.2 hPa WNW 12.1 km/h 17.7 km/h 61.4% 0 mm 348 W/m2
15:19 16.8 °C 9.3 °C 1020.2 hPa WNW 9.8 km/h 19.3 km/h 61.2% 0 mm 352 W/m2
15:24 16.7 °C 9.2 °C 1020.2 hPa WNW 8.4 km/h 17.7 km/h 61.4% 0 mm 304 W/m2
15:29 16.8 °C 9.1 °C 1020.5 hPa NW 9.3 km/h 19.3 km/h 60.6% 0 mm 290 W/m2
15:34 16.8 °C 8.6 °C 1020.5 hPa WNW 10 km/h 19.3 km/h 58.6% 0 mm 258 W/m2
15:39 16.9 °C 8.7 °C 1020.5 hPa NW 7.7 km/h 14.5 km/h 58.6% 0 mm 390 W/m2
15:44 16.9 °C 8.7 °C 1020.5 hPa NW 8.7 km/h 14.5 km/h 58.2% 0 mm 376 W/m2
15:49 16.9 °C 8.4 °C 1020.5 hPa NW 12.7 km/h 16.1 km/h 57.4% 0 mm 336 W/m2
15:54 16.9 °C 8.7 °C 1020.5 hPa NW 6.3 km/h 17.7 km/h 58.8% 0 mm 244 W/m2
15:59 16.9 °C 9.1 °C 1020.5 hPa WNW 7.2 km/h 14.5 km/h 60% 0 mm 130 W/m2
16:04 16.8 °C 9.3 °C 1020.5 hPa NW 8.7 km/h 17.7 km/h 61.4% 0 mm 144 W/m2
16:09 16.5 °C 9.2 °C 1020.5 hPa NW 11.3 km/h 19.3 km/h 62.2% 0 mm 135 W/m2
16:14 16.3 °C 9.2 °C 1020.5 hPa NW 6.9 km/h 16.1 km/h 63% 0 mm 229 W/m2
16:19 16.4 °C 9.6 °C 1020.5 hPa WNW 5.5 km/h 14.5 km/h 63.8% 0 mm 271 W/m2
16:24 16.7 °C 9.8 °C 1020.5 hPa NW 6.4 km/h 16.1 km/h 63.8% 0 mm 218 W/m2
16:29 16.6 °C 9.5 °C 1020.5 hPa NW 9.3 km/h 16.1 km/h 63.2% 0 mm 174 W/m2
16:33 16.4 °C 9.3 °C 1020.5 hPa WNW 9.3 km/h 16.1 km/h 63.3% 0 mm 178 W/m2
16:39 16.5 °C 9.7 °C 1020.5 hPa NW 4 km/h 16.1 km/h 64% 0 mm 283 W/m2
16:44 16.7 °C 9.8 °C 1020.5 hPa NW 7.4 km/h 16.1 km/h 63.6% 0 mm 262 W/m2
16:49 16.7 °C 9.8 °C 1020.5 hPa NNW 5.3 km/h 9.7 km/h 63.8% 0 mm 229 W/m2
16:54 16.7 °C 9.9 °C 1020.5 hPa NNW 7.7 km/h 17.7 km/h 64% 0 mm 214 W/m2
16:59 16.6 °C 9.9 °C 1020.5 hPa NW 4.8 km/h 9.7 km/h 64.8% 0 mm 178 W/m2
17:04 16.7 °C 10.1 °C 1020.5 hPa NW 2.4 km/h 8 km/h 65% 0 mm 167 W/m2
17:09 16.7 °C 10 °C 1020.5 hPa NW 5.8 km/h 12.9 km/h 64.6% 0 mm 149 W/m2
17:14 16.7 °C 10.2 °C 1020.5 hPa NW 3.9 km/h 8 km/h 65.4% 0 mm 308 W/m2
17:19 16.8 °C 10.3 °C 1020.5 hPa NW 5.5 km/h 12.9 km/h 65.4% 0 mm 234 W/m2
17:24 16.9 °C 10.1 °C 1020.5 hPa NW 5.1 km/h 12.9 km/h 64% 0 mm 714 W/m2
17:29 17.2 °C 10.1 °C 1020.5 hPa WNW 6.4 km/h 12.9 km/h 62.8% 0 mm 698 W/m2
17:34 17.3 °C 10.2 °C 1020.5 hPa WNW 4 km/h 11.3 km/h 62.8% 0 mm 167 W/m2
17:39 17.2 °C 10.1 °C 1020.5 hPa NW 4.8 km/h 11.3 km/h 63% 0 mm 165 W/m2
17:44 17.1 °C 10.1 °C 1020.5 hPa NW 5.3 km/h 11.3 km/h 63.2% 0 mm 199 W/m2
17:49 17.2 °C 10.1 °C 1020.5 hPa North 2.9 km/h 11.3 km/h 62.8% 0 mm 561 W/m2
17:54 17.7 °C 10.2 °C 1020.5 hPa NNW 6.9 km/h 14.5 km/h 61.6% 0 mm 373 W/m2
17:59 17.5 °C 9.8 °C 1020.5 hPa NW 7.1 km/h 14.5 km/h 60.8% 0 mm 241 W/m2
18:04 17.5 °C 9.7 °C 1020.5 hPa North 8.7 km/h 16.1 km/h 60.4% 0 mm 617 W/m2
18:09 17.6 °C 9.7 °C 1020.9 hPa North 10.8 km/h 17.7 km/h 60% 0 mm 534 W/m2
18:14 17.3 °C 9.7 °C 1020.9 hPa NNW 7.6 km/h 12.9 km/h 61% 0 mm 111 W/m2
18:19 17 °C 9.8 °C 1020.9 hPa NNW 6 km/h 12.9 km/h 62.8% 0 mm 97 W/m2
18:24 16.8 °C 9.9 °C 1020.9 hPa NNW 7.1 km/h 12.9 km/h 63.8% 0 mm 100 W/m2
18:29 16.7 °C 9.8 °C 1020.9 hPa NNW 5.5 km/h 12.9 km/h 63.8% 0 mm 86 W/m2
18:34 16.7 °C 10.1 °C 1020.9 hPa NNW 4.5 km/h 12.9 km/h 64.6% 0 mm 399 W/m2
18:44 17.3 °C 9.9 °C 1021.2 hPa NW 6.4 km/h 9.7 km/h 62% 0 mm 149 W/m2
18:49 17.1 °C 9.8 °C 1021.2 hPa NNW 6.3 km/h 17.7 km/h 62.4% 0 mm 100 W/m2
18:54 16.9 °C 9.8 °C 1021.2 hPa NNW 8.7 km/h 14.5 km/h 63% 0 mm 97 W/m2
18:59 16.7 °C 9.8 °C 1021.2 hPa NNW 9 km/h 14.5 km/h 63.8% 0 mm 86 W/m2
19:04 16.7 °C 9.9 °C 1021.2 hPa NNW 6.6 km/h 14.5 km/h 64.2% 0 mm 76 W/m2
19:09 16.6 °C 10 °C 1021.6 hPa NNW 6.8 km/h 12.9 km/h 65% 0 mm 91 W/m2
19:14 16.6 °C 10 °C 1021.6 hPa North 6.4 km/h 9.7 km/h 65% 0 mm 100 W/m2
19:19 16.6 °C 10.1 °C 1021.6 hPa NNW 5.1 km/h 9.7 km/h 65.5% 0 mm 90 W/m2
19:24 16.7 °C 10.2 °C 1021.6 hPa North 2.9 km/h 9.7 km/h 66% 0 mm 274 W/m2
19:29 16.9 °C 10.3 °C 1021.6 hPa North 3.9 km/h 9.7 km/h 65% 0 mm 279 W/m2
19:34 17.2 °C 10.4 °C 1021.2 hPa NNE 6.4 km/h 14.5 km/h 64.2% 0 mm 287 W/m2
19:39 17.2 °C 10.4 °C 1021.6 hPa North 5.3 km/h 11.3 km/h 64.2% 0 mm 248 W/m2
19:44 17.1 °C 10.5 °C 1021.6 hPa North 3.4 km/h 8 km/h 65% 0 mm 146 W/m2
19:49 17.2 °C 10.5 °C 1021.6 hPa North 3.9 km/h 11.3 km/h 64.8% 0 mm 190 W/m2
19:54 17.1 °C 10.2 °C 1021.6 hPa North 8.7 km/h 17.7 km/h 64% 0 mm 181 W/m2
19:59 16.9 °C 10 °C 1021.6 hPa North 7.9 km/h 14.5 km/h 64% 0 mm 155 W/m2
20:04 16.9 °C 10.2 °C 1021.6 hPa North 6.4 km/h 14.5 km/h 64.6% 0 mm 142 W/m2
20:09 16.8 °C 10.2 °C 1021.6 hPa North 7.7 km/h 17.7 km/h 65% 0 mm 42 W/m2
20:14 16.4 °C 9.9 °C 1021.9 hPa North 9.3 km/h 17.7 km/h 65.8% 0 mm 90 W/m2
20:19 16.2 °C 9.9 °C 1021.6 hPa North 6.8 km/h 11.3 km/h 66.2% 0 mm 76 W/m2
20:24 16.2 °C 10.1 °C 1021.9 hPa North 4.7 km/h 8 km/h 67% 0 mm 62 W/m2
20:29 16.2 °C 10.3 °C 1021.9 hPa NNW 1 km/h 6.4 km/h 67.8% 0 mm 56 W/m2
20:34 16.3 °C 10.3 °C 1021.9 hPa North 3.4 km/h 8 km/h 68% 0 mm 44 W/m2
20:39 16.1 °C 10.2 °C 1021.9 hPa NNE 4.3 km/h 8 km/h 68% 0 mm 39 W/m2
20:44 15.9 °C 10.1 °C 1021.9 hPa North 4.5 km/h 9.7 km/h 68% 0 mm 30 W/m2
20:49 15.8 °C 10.1 °C 1021.9 hPa NNW 4.3 km/h 9.7 km/h 68.8% 0 mm 23 W/m2
20:54 15.7 °C 10.1 °C 1021.9 hPa North 3.7 km/h 9.7 km/h 69% 0 mm 19 W/m2
20:59 15.7 °C 9.9 °C 1021.9 hPa North 3.4 km/h 8 km/h 69% 0 mm 18 W/m2
21:04 15.5 °C 9.9 °C 1021.9 hPa North 2.3 km/h 6.4 km/h 69.4% 0 mm 14 W/m2
21:09 15.3 °C 9.8 °C 1022.2 hPa North 1 km/h 4.8 km/h 70% 0 mm 12 W/m2
21:14 15.2 °C 9.9 °C 1022.2 hPa Calm   4.8 km/h 70.6% 0 mm 11 W/m2
21:19 15 °C 9.8 °C 1022.2 hPa Calm     71% 0 mm 7 W/m2
21:24 14.8 °C 9.8 °C 1022.2 hPa North 2.9 km/h 4.8 km/h 72% 0 mm 5 W/m2
21:29 14.7 °C 9.8 °C 1022.2 hPa North 1.9 km/h 4.8 km/h 72.6% 0 mm 0 W/m2
21:34 14.4 °C 9.7 °C 1022.2 hPa Calm   4.8 km/h 73% 0 mm 0 W/m2
21:39 14.3 °C 9.7 °C 1022.6 hPa North 2.3 km/h 6.4 km/h 73.6% 0 mm 0 W/m2
21:44 14.2 °C 9.6 °C 1022.6 hPa North 1.3 km/h 4.8 km/h 74% 0 mm 0 W/m2
21:49 14 °C 9.4 °C 1022.6 hPa North 3.7 km/h 4.8 km/h 74% 0 mm 0 W/m2
21:54 13.8 °C 9.2 °C 1022.9 hPa North 1.9 km/h 4.8 km/h 74% 0 mm 0 W/m2
21:59 13.8 °C 9.2 °C 1022.9 hPa North 2.9 km/h 4.8 km/h 74% 0 mm 0 W/m2
22:04 13.7 °C 9.1 °C 1022.9 hPa North 3.4 km/h 4.8 km/h 74% 0 mm 0 W/m2
22:09 13.6 °C 9.1 °C 1023.2 hPa North 3.5 km/h 6.4 km/h 74% 0 mm 0 W/m2
22:14 13.4 °C 9 °C 1023.2 hPa North 3.2 km/h 6.4 km/h 74.5% 0 mm 0 W/m2
22:19 13.3 °C 9.1 °C 1023.2 hPa North 5 km/h 8 km/h 75% 0 mm 0 W/m2
22:24 13.3 °C 8.9 °C 1023.2 hPa North 5.1 km/h 8 km/h 75% 0 mm 0 W/m2
22:29 13.2 °C 8.8 °C 1023.2 hPa NNW 4.3 km/h 9.7 km/h 75% 0 mm 0 W/m2
22:34 13.1 °C 8.7 °C 1023.2 hPa NNW 4.3 km/h 6.4 km/h 75% 0 mm 0 W/m2
22:39 12.9 °C 8.7 °C 1023.6 hPa NNW 2.3 km/h 6.4 km/h 75.4% 0 mm 0 W/m2
22:44 12.8 °C 8.8 °C 1023.6 hPa North 1 km/h 4.8 km/h 76% 0 mm 0 W/m2
22:49 12.8 °C 8.7 °C 1023.6 hPa North 4 km/h 6.4 km/h 76% 0 mm 0 W/m2
22:54 12.8 °C 8.7 °C 1023.9 hPa North 4.8 km/h 8 km/h 76% 0 mm 0 W/m2
22:59 12.8 °C 8.6 °C 1023.9 hPa North 4.5 km/h 8 km/h 75.6% 0 mm 0 W/m2
23:04 12.7 °C 8.5 °C 1023.9 hPa North 2.9 km/h 6.4 km/h 75.4% 0 mm 0 W/m2
23:09 12.7 °C 8.6 °C 1023.9 hPa North 0.3 km/h 4.8 km/h 75.8% 0 mm 0 W/m2
23:19 12.5 °C 8.4 °C 1023.9 hPa Calm     76% 0 mm 0 W/m2
23:24 12.3 °C 8.2 °C 1023.9 hPa Calm     76% 0 mm 0 W/m2
23:29 12.2 °C 8.1 °C 1023.9 hPa Calm     76% 0 mm 0 W/m2
23:34 12.1 °C 8.1 °C 1024.3 hPa Calm     76% 0 mm 0 W/m2
23:39 12.1 °C 8.2 °C 1024.3 hPa Calm     76.8% 0 mm 0 W/m2
23:44 12.1 °C 8.2 °C 1024.3 hPa Calm     77% 0 mm 0 W/m2
23:49 11.9 °C 8.1 °C 1024.3 hPa Calm     77% 0 mm 0 W/m2
23:54 11.9 °C 8 °C 1024.3 hPa Calm     77% 0 mm 0 W/m2
23:59 11.8 °C 7.8 °C 1024.3 hPa Calm     77% 0 mm 0 W/m2
Bath Spa Weather
Compliments of Weather Underground - 2 mb